sat.trackr.live / text

‹ back to catalog

ONEWEB-0127

NORAD 47273 · 2020-100R

PAYLOAD ACTIVE UNKNOWN

§ Identity

Operator
Country
UK
Launch date
2020-12-18
Launch site
VOSTO
Launch vehicle
Mass (kg)
RCS (m²)

Purposes: comms

External: N2YO · Heavens-Above · Gunter

§ Orbital elements

Epoch: 2026-05-25T03:17:54.924864Z

Period
109.72 min
Inclination
87.8947°
Eccentricity
0.0001684
Mean motion
13.12441363 rev/d
Perigee alt
1,212.5 km
Apogee alt
1,215.0 km
Semi-major
7,591.9 km
B*
-6.9049e-4
RAAN
355.2555°
Arg perigee
88.6382°
Mean anomaly
271.4939°
Rev number
26,170

§ Raw data

ONEWEB-01271 47273U 20100R   26145.13744126 -.00000236  00000+0 -69049-3 0  99952 47273  87.8947 355.2555 0001684  88.6382 271.4939 13.12441363261701

JSON: /api/v1/satellites/47273 · /tle

For live sub-satellite position, see the globe view (requires WebGL).

§ Visibility from observer

Set your observer location to see the next 7 days of passes ≥ 10°. The values pass through the URL so the page stays shareable.

No JS? Fill the form by hand. The geolocation button needs JavaScript.